Regional Weather Roundup
Issued by NWS

Home | Current Version | Previous Version | Text Only | Print | Product List | Glossary On
Versions: 1 2 3 4 5 6 7 8 9 10 11 12 13 14 15 16 17 18 19 20 21 22 23 24 25 26 27
000
ASUS43 KDMX 241107
RWRIA

WEATHER ROUNDUP FOR IOWA
NATIONAL WEATHER SERVICE DES MOINES IA
600 AM CDT FRI OCT 24 2014

NOTE: "FAIR" INDICATES FEW OR NO CLOUDS BELOW 12,000 FEET WITH NO
SIGNIFICANT WEATHER AND/OR OBSTRUCTIONS TO VISIBILITY.

* - THESE STATIONS ARE NOT NWS STATIONS...THUS NOT UNDER NWS
QUALITY CONTROL.  THEY ALSO DO NOT REPORT WEATHER SUCH
AS PRECIPITATION OR FOG.

IAZ001>003-012>014-020>022-031>034-043>046-241200-
   NORTHWEST IOWA

CITY           SKY/WX    TMP DP  RH WIND       PRES   REMARKS
CARROLL *      PTCLDY    55  55 100 S9        29.93F FOG
CHEROKEE *     MOCLDY    55  54  94 S7        29.88F
DENISON *      CLEAR     55  55 100 S9        29.91F
LE MARS *      CLEAR     54  52  94 S8        29.88S
ORANGE CITY *  CLEAR     54  50  87 S6        29.87S
SHELDON *      CLEAR     54  50  87 S7        29.86F
SIOUX CITY     MOCLDY    55  52  89 S8        29.88F
SPENCER        MOCLDY    53  49  86 S9        29.87F
STORM LAKE *   CLEAR     54  52  94 S9        29.91F
$$

IAZ055>058-069>071-079>083-090>094-241200-
   SOUTHWEST IOWA

CITY           SKY/WX    TMP DP  RH WIND       PRES   REMARKS
AUDUBON *      HAZE      57  52  82 S10       29.96F VSB 1
CLARINDA *     FOG       59  59 100 S9        30.02S VSB 1/4
COUNCIL BLFS * CLEAR     59  59 100 S9        29.95F
CRESTON *      FOG       59  59 100 SW10      30.01F VSB 1/4
HARLAN  *      FOG       55  55 100 S10       29.98F VSB 0
LAMONI         FOG       57  57 100 S7        30.03S VSB 1/4
RED OAK *      CLOUDY    59  59 100 S9        29.98F FOG
SHENANDOAH *   CLOUDY    59  59 100 S7        30.00F FOG
$$

IAZ047>049-059>061-072>074-084-241200-
   CENTRAL IOWA

CITY           SKY/WX    TMP DP  RH WIND       PRES   REMARKS
AMES           FOG       49  48  97 S3        29.98F VSB 1/4
ANKENY *       FOG       54  54 100 S5        29.99F VSB 0
CHARITON *     FOG       57  57 100 S9        30.02S VSB 1/4
DES MOINES     FOG       57  56  96 S7        29.99F VSB 1/8
GRINNELL*      FOG       50  48  93 S6        30.01F VSB 1/4
KNOXVILLE *    FOG       57  57 100 S9        30.00F VSB 1/2
MARSHALLTOWN   FOG       47  47 100 SE9       29.98F VSB 1/4
PELLA *        FOG       57  57 100 S7        30.03F VSB 1/4
PERRY *        DRZL/FOG  55  54  94 S8        29.97F VSB 1/4
$$

IAZ004>006-015-016-023>025-035-036-241200-
   NORTH CENTRAL IOWA

CITY           SKY/WX    TMP DP  RH WIND       PRES   REMARKS
ALGONA *       CLEAR     52  48  87 S12       29.92F
CLARION *      CLEAR     52  52 100 S8        29.95S
ESTHERVILLE    PTCLDY    47  44  90 S14       29.87F
FORT DODGE *   PTCLDY    52  46  82 S6        29.94F
FOREST CITY *  CLEAR     45  45 100 SE3       29.94F FOG
IOWA FALLS *     N/A     45  45 100 SE3       29.99S FOG
$$

IAZ007>011-017>019-026>030-037>042-050>054-066-241200-
   NORTHEAST IOWA

CITY           SKY/WX    TMP DP  RH WIND       PRES   REMARKS
CEDAR RAPIDS   FOG       43  43 100 SE3       30.02F VSB 1/8
CHARLES CITY * FOG       46  46 100 SE6       29.99F VSB 0
CLINTON *      CLOUDY    46  43  87 CALM      30.08S VSB 1/4
DECORAH *      FOG       50  50 100 SE7       29.99F VSB 0
DUBUQUE        FOG       51  51 100 S3        30.04S VSB 1/4
MONTICELLO *   FOG       48  48 100 SE5       30.03F VSB 0
OELWEIN *      FOG       48  48 100 SE6       30.01F VSB 0
WATERLOO       FOG       47  47 100 SE3       29.99F VSB 1/4
$$

IAZ064-065-067-068-078-241200-
   EAST CENTRAL IOWA

CITY           SKY/WX    TMP DP  RH WIND       PRES   REMARKS
DAVENPORT      FOG       49  47  93 CALM      30.06S VSB 1/4
IOWA CITY      FOG       46  46 100 SE5       30.06S VSB 1/4
MT. PLEASANT * DRZL/FOG  52  52 100 CALM      30.06S VSB 1/4
MUSCATINE *    FOG       50  50 100 CALM      30.06S VSB 0
QUAD CITIES    CLOUDY    49  48  97 CALM      30.06S FOG
$$

IAZ062-063-075>077-085>089-095>099-241200-
   SOUTHEAST IOWA

CITY           SKY/WX    TMP DP  RH WIND       PRES   REMARKS
BURLINGTON     FOG       53  53 100 CALM      30.06R VSB 1/4
FAIRFIELD *    CLOUDY    50  48  93 S6        30.05F
FORT MADISON * FOG       55  55 100 CALM      30.07S VSB 1/4
KEOKUK *       FOG       54  54 100 SW7       30.06S VSB 0
OSKALOOSA *    DRZL/FOG  52  52 100 SW5       30.04F VSB 1/4
CENTERVILLE *  FOG       55  55 100 S6        30.06S VSB 3/4
OTTUMWA        FOG       52  52 100 S3        30.04S VSB 1/4
WASHINGTON *   FOG       48  48 100 CALM      30.05S VSB 0
$$

ABBREVIATIONS USED IN REMARKS
   TC - TEMPERATURES IN CELSIUS
  WCI - WIND CHILL INDEX
   HX - HEAT INDEX
  VSB - VISIBILITY
$$




USA.gov is the U.S. government's official web portal to all federal, state and local government web resources and services.